Saint Bonnet de Bellac- Haute Vienne - France
Donnes mto: vendredi, 21/09/2012
Date Horaire Temp. E. Hum. E. P.atmo. Pluie Vent Direction Direction Ensoleilleme Solaire P. de rose Temp au vent Rafales
21/09/2012 00:00 10,8 C 59 % 1015,7 hPa 0,0 mm 0,0 km/h (0 Bft) E-SE 112 0 min 0 W/m 3,1 C 10,8 C 0,0 km/h (0 Bft)
21/09/2012 00:10 10,6 C 60 % 1015,7 hPa 0,0 mm 0,0 km/h (0 Bft) E-NE 67 0 min 0 W/m 3,2 C 10,6 C 0,0 km/h (0 Bft)
21/09/2012 00:20 10,5 C 61 % 1015,7 hPa 0,0 mm 0,4 km/h (0 Bft) E 90 0 min 0 W/m 3,3 C 10,5 C 0,4 km/h (0 Bft)
21/09/2012 00:30 10,3 C 62 % 1015,7 hPa 0,0 mm 0,0 km/h (0 Bft) E 90 0 min 0 W/m 3,3 C 10,3 C 0,0 km/h (0 Bft)
21/09/2012 00:40 10,2 C 63 % 1015,7 hPa 0,0 mm 2,2 km/h (1 Bft) E-SE 112 0 min 0 W/m 3,5 C 10,2 C 4,3 km/h (1 Bft)
21/09/2012 00:50 10,0 C 63 % 1015,7 hPa 0,0 mm 0,4 km/h (0 Bft) E 90 0 min 0 W/m 3,3 C 10,0 C 4,3 km/h (1 Bft)
21/09/2012 01:00 9,8 C 64 % 1015,7 hPa 0,0 mm 1,4 km/h (1 Bft) E-SE 112 0 min 0 W/m 3,3 C 9,8 C 3,6 km/h (1 Bft)
21/09/2012 01:10 9,8 C 66 % 1015,6 hPa 0,0 mm 2,2 km/h (1 Bft) E 90 0 min 0 W/m 3,8 C 9,8 C 7,6 km/h (2 Bft)
21/09/2012 01:20 9,8 C 66 % 1015,5 hPa 0,0 mm 2,9 km/h (1 Bft) SE 135 0 min 0 W/m 3,8 C 9,8 C 2,9 km/h (1 Bft)
21/09/2012 01:30 9,6 C 67 % 1015,4 hPa 0,0 mm 0,7 km/h (0 Bft) E-SE 112 0 min 0 W/m 3,8 C 9,6 C 3,6 km/h (1 Bft)
21/09/2012 01:40 9,5 C 68 % 1015,3 hPa 0,0 mm 0,4 km/h (0 Bft) E 90 0 min 0 W/m 3,9 C 9,5 C 3,2 km/h (1 Bft)
21/09/2012 01:50 9,4 C 68 % 1015,4 hPa 0,0 mm 2,5 km/h (1 Bft) E-SE 112 0 min 0 W/m 3,8 C 9,4 C 5,8 km/h (2 Bft)
21/09/2012 02:00 9,4 C 68 % 1015,3 hPa 0,0 mm 3,2 km/h (1 Bft) SE 135 0 min 0 W/m 3,8 C 9,4 C 7,6 km/h (2 Bft)
21/09/2012 02:10 9,4 C 68 % 1015,2 hPa 0,0 mm 0,0 km/h (0 Bft) E-SE 112 0 min 0 W/m 3,8 C 9,4 C 0,0 km/h (0 Bft)
21/09/2012 02:20 9,4 C 68 % 1015,2 hPa 0,0 mm 2,2 km/h (1 Bft) E 90 0 min 0 W/m 3,8 C 9,4 C 3,2 km/h (1 Bft)
21/09/2012 02:30 9,3 C 68 % 1015,2 hPa 0,0 mm 1,4 km/h (1 Bft) SE 135 0 min 0 W/m 3,7 C 9,3 C 4,3 km/h (1 Bft)
21/09/2012 02:40 9,3 C 69 % 1015,2 hPa 0,0 mm 0,4 km/h (0 Bft) E-SE 112 0 min 0 W/m 3,9 C 9,3 C 4,3 km/h (1 Bft)
21/09/2012 02:50 9,1 C 69 % 1015,1 hPa 0,0 mm 1,4 km/h (1 Bft) E 90 0 min 0 W/m 3,7 C 9,1 C 2,9 km/h (1 Bft)
21/09/2012 03:02 9,3 C 69 % 1015,1 hPa 0,0 mm 3,6 km/h (1 Bft) E-SE 112 0 min 0 W/m 3,9 C 9,3 C 8,3 km/h (2 Bft)
21/09/2012 03:10 9,4 C 68 % 1015,1 hPa 0,0 mm 3,2 km/h (1 Bft) E 90 0 min 0 W/m 3,8 C 9,4 C 7,2 km/h (2 Bft)
21/09/2012 03:20 9,5 C 68 % 1014,9 hPa 0,0 mm 6,1 km/h (2 Bft) E-SE 112 0 min 0 W/m 3,9 C 8,9 C 6,1 km/h (2 Bft)
21/09/2012 03:30 9,7 C 67 % 1014,9 hPa 0,0 mm 3,6 km/h (1 Bft) E-SE 112 0 min 0 W/m 3,9 C 9,7 C 8,3 km/h (2 Bft)
21/09/2012 03:40 9,7 C 67 % 1014,7 hPa 0,0 mm 1,4 km/h (1 Bft) E-SE 112 0 min 0 W/m 3,9 C 9,7 C 4,3 km/h (1 Bft)
21/09/2012 03:50 9,7 C 67 % 1014,7 hPa 0,0 mm 1,4 km/h (1 Bft) N 360 0 min 0 W/m 3,9 C 9,7 C 1,4 km/h (1 Bft)
21/09/2012 04:00 9,6 C 67 % 1014,7 hPa 0,0 mm 0,0 km/h (0 Bft) NE 45 0 min 0 W/m 3,8 C 9,6 C 0,0 km/h (0 Bft)
21/09/2012 04:10 9,6 C 67 % 1014,5 hPa 0,0 mm 0,0 km/h (0 Bft) E 90 0 min 0 W/m 3,8 C 9,6 C 3,2 km/h (1 Bft)
21/09/2012 04:20 9,8 C 68 % 1014,5 hPa 0,0 mm 1,1 km/h (1 Bft) E-SE 112 0 min 0 W/m 4,2 C 9,8 C 4,0 km/h (1 Bft)
21/09/2012 04:30 10,1 C 68 % 1014,3 hPa 0,0 mm 2,2 km/h (1 Bft) E-SE 112 0 min 0 W/m 4,5 C 10,1 C 6,5 km/h (2 Bft)
21/09/2012 04:40 10,2 C 68 % 1014,3 hPa 0,0 mm 3,2 km/h (1 Bft) E-NE 67 0 min 0 W/m 4,6 C 10,2 C 6,8 km/h (2 Bft)
21/09/2012 04:50 10,2 C 69 % 1014,1 hPa 0,0 mm 1,4 km/h (1 Bft) E-NE 67 0 min 0 W/m 4,8 C 10,2 C 3,6 km/h (1 Bft)
21/09/2012 05:00 10,2 C 69 % 1014,0 hPa 0,0 mm 2,9 km/h (1 Bft) E-NE 67 0 min 0 W/m 4,8 C 10,2 C 4,3 km/h (1 Bft)
21/09/2012 05:10 10,2 C 71 % 1014,1 hPa 0,0 mm 0,4 km/h (0 Bft) E 90 0 min 0 W/m 5,2 C 10,2 C 0,4 km/h (0 Bft)
21/09/2012 05:20 10,3 C 72 % 1013,9 hPa 0,0 mm 3,2 km/h (1 Bft) E-NE 67 0 min 0 W/m 5,5 C 10,3 C 4,3 km/h (1 Bft)
21/09/2012 05:30 10,4 C 73 % 1013,8 hPa 0,0 mm 2,2 km/h (1 Bft) E 90 0 min 0 W/m 5,8 C 10,4 C 4,3 km/h (1 Bft)
21/09/2012 05:40 10,6 C 73 % 1013,8 hPa 0,0 mm 2,2 km/h (1 Bft) E-SE 112 0 min 0 W/m 6,0 C 10,6 C 3,2 km/h (1 Bft)
21/09/2012 05:50 10,6 C 74 % 1013,7 hPa 0,0 mm 2,5 km/h (1 Bft) E 90 0 min 0 W/m 6,2 C 10,6 C 4,3 km/h (1 Bft)
21/09/2012 06:00 10,8 C 75 % 1013,7 hPa 0,0 mm 3,2 km/h (1 Bft) E 90 0 min 0 W/m 6,5 C 10,8 C 3,6 km/h (1 Bft)
21/09/2012 06:10 10,9 C 75 % 1013,7 hPa 0,0 mm 1,4 km/h (1 Bft) E 90 0 min 0 W/m 6,6 C 10,9 C 4,3 km/h (1 Bft)
21/09/2012 06:20 11,1 C 76 % 1013,6 hPa 0,0 mm 1,8 km/h (1 Bft) E 90 0 min 0 W/m 7,0 C 11,1 C 4,0 km/h (1 Bft)
21/09/2012 06:30 11,3 C 76 % 1013,6 hPa 0,0 mm 0,4 km/h (0 Bft) E 90 0 min 0 W/m 7,2 C 11,3 C 3,2 km/h (1 Bft)
21/09/2012 06:40 11,5 C 76 % 1013,6 hPa 0,0 mm 0,7 km/h (0 Bft) E 90 0 min 0 W/m 7,4 C 11,5 C 3,2 km/h (1 Bft)
21/09/2012 06:50 11,6 C 76 % 1013,5 hPa 0,0 mm 1,8 km/h (1 Bft) E-SE 112 0 min 0 W/m 7,5 C 11,6 C 1,8 km/h (1 Bft)
21/09/2012 07:00 11,6 C 76 % 1013,6 hPa 0,0 mm 2,9 km/h (1 Bft) E 90 0 min 0 W/m 7,5 C 11,6 C 2,9 km/h (1 Bft)
21/09/2012 07:10 11,8 C 77 % 1013,6 hPa 0,0 mm 2,2 km/h (1 Bft) E-SE 112 0 min 0 W/m 7,9 C 11,8 C 4,0 km/h (1 Bft)
21/09/2012 07:20 12,2 C 77 % 1013,7 hPa 0,0 mm 2,5 km/h (1 Bft) E 90 0 min 0 W/m 8,3 C 12,2 C 4,3 km/h (1 Bft)
21/09/2012 07:30 12,5 C 77 % 1013,7 hPa 0,0 mm 2,2 km/h (1 Bft) E-SE 112 0 min 0 W/m 8,6 C 12,5 C 6,1 km/h (2 Bft)
21/09/2012 07:40 12,8 C 77 % 1013,6 hPa 0,0 mm 2,9 km/h (1 Bft) SE 135 0 min 0 W/m 8,9 C 12,8 C 3,6 km/h (1 Bft)
21/09/2012 07:50 13,1 C 76 % 1013,7 hPa 0,0 mm 0,7 km/h (0 Bft) E 90 0 min 0 W/m 9,0 C 13,1 C 2,9 km/h (1 Bft)
21/09/2012 08:00 13,1 C 76 % 1013,7 hPa 0,0 mm 1,1 km/h (1 Bft) E 90 0 min 0 W/m 9,0 C 13,1 C 4,0 km/h (1 Bft)
21/09/2012 08:10 13,3 C 76 % 1013,6 hPa 0,0 mm 2,2 km/h (1 Bft) SE 135 0 min 0 W/m 9,2 C 13,3 C 6,8 km/h (2 Bft)
21/09/2012 08:20 13,6 C 76 % 1013,6 hPa 0,0 mm 2,2 km/h (1 Bft) E 90 0 min 0 W/m 9,4 C 13,6 C 3,6 km/h (1 Bft)
21/09/2012 08:30 13,8 C 75 % 1013,7 hPa 0,0 mm 1,8 km/h (1 Bft) E-SE 112 0 min 0 W/m 9,4 C 13,8 C 3,2 km/h (1 Bft)
21/09/2012 08:40 14,1 C 74 % 1013,7 hPa 0,0 mm 1,4 km/h (1 Bft) E-NE 67 0 min 0 W/m 9,5 C 14,1 C 3,6 km/h (1 Bft)
21/09/2012 08:50 14,6 C 73 % 1013,6 hPa 0,0 mm 4,3 km/h (1 Bft) SE 135 0 min 0 W/m 9,8 C 14,6 C 4,3 km/h (1 Bft)
21/09/2012 09:00 15,4 C 72 % 1013,6 hPa 0,0 mm 4,3 km/h (1 Bft) E-SE 112 0 min 0 W/m 10,4 C 15,4 C 4,3 km/h (1 Bft)
21/09/2012 09:10 16,2 C 70 % 1013,7 hPa 0,0 mm 1,4 km/h (1 Bft) E-SE 112 0 min 0 W/m 10,7 C 16,2 C 3,2 km/h (1 Bft)
21/09/2012 09:20 16,8 C 69 % 1013,7 hPa 0,0 mm 1,8 km/h (1 Bft) E-SE 112 0 min 0 W/m 11,1 C 16,8 C 4,3 km/h (1 Bft)
21/09/2012 09:30 17,3 C 68 % 1013,7 hPa 0,0 mm 4,0 km/h (1 Bft) S-SE 157 0 min 0 W/m 11,3 C 17,3 C 4,0 km/h (1 Bft)
21/09/2012 09:40 17,4 C 68 % 1013,7 hPa 0,0 mm 0,0 km/h (0 Bft) SE 135 0 min 0 W/m 11,4 C 17,4 C 0,0 km/h (0 Bft)
21/09/2012 09:50 17,4 C 67 % 1013,8 hPa 0,0 mm 0,0 km/h (0 Bft) SE 135 0 min 0 W/m 11,2 C 17,4 C 0,0 km/h (0 Bft)
21/09/2012 10:00 17,6 C 65 % 1013,9 hPa 0,0 mm 5,4 km/h (2 Bft) S-SO 202 0 min 0 W/m 10,9 C 17,6 C 9,0 km/h (2 Bft)
21/09/2012 10:10 18,0 C 64 % 1013,9 hPa 0,0 mm 4,3 km/h (1 Bft) S-SE 157 0 min 0 W/m 11,1 C 18,0 C 6,5 km/h (2 Bft)
21/09/2012 10:20 18,2 C 64 % 1013,9 hPa 0,0 mm 0,0 km/h (0 Bft) SE 135 0 min 0 W/m 11,3 C 18,2 C 0,0 km/h (0 Bft)
21/09/2012 10:30 18,2 C 64 % 1014,0 hPa 0,0 mm 5,0 km/h (1 Bft) SE 135 0 min 0 W/m 11,3 C 18,2 C 5,0 km/h (1 Bft)
21/09/2012 10:40 18,3 C 64 % 1014,0 hPa 0,0 mm 2,5 km/h (1 Bft) S-SE 157 0 min 0 W/m 11,4 C 18,3 C 4,3 km/h (1 Bft)
21/09/2012 10:50 18,3 C 63 % 1013,9 hPa 0,0 mm 3,6 km/h (1 Bft) S-SO 202 0 min 0 W/m 11,1 C 18,3 C 6,5 km/h (2 Bft)
21/09/2012 11:00 18,3 C 64 % 1014,0 hPa 0,0 mm 2,9 km/h (1 Bft) S-SO 202 0 min 0 W/m 11,4 C 18,3 C 4,3 km/h (1 Bft)
21/09/2012 11:10 18,4 C 64 % 1014,1 hPa 0,0 mm 4,0 km/h (1 Bft) S-SO 202 0 min 0 W/m 11,5 C 18,4 C 7,9 km/h (2 Bft)
21/09/2012 11:20 18,6 C 62 % 1014,2 hPa 0,0 mm 4,0 km/h (1 Bft) S-SO 202 0 min 0 W/m 11,2 C 18,6 C 8,6 km/h (2 Bft)
21/09/2012 11:30 18,9 C 61 % 1014,2 hPa 0,0 mm 9,4 km/h (2 Bft) SO 225 0 min 0 W/m 11,2 C 18,9 C 10,8 km/h (2 Bft)
21/09/2012 11:40 19,2 C 60 % 1014,3 hPa 0,0 mm 6,5 km/h (2 Bft) SO 225 0 min 0 W/m 11,2 C 19,2 C 10,4 km/h (2 Bft)
21/09/2012 11:50 19,3 C 60 % 1014,3 hPa 0,0 mm 9,0 km/h (2 Bft) SO 225 0 min 0 W/m 11,3 C 19,3 C 9,0 km/h (2 Bft)
21/09/2012 12:00 19,3 C 60 % 1014,3 hPa 0,0 mm 8,3 km/h (2 Bft) S 180 0 min 0 W/m 11,3 C 19,3 C 15,5 km/h (3 Bft)
21/09/2012 12:10 19,3 C 60 % 1014,2 hPa 0,0 mm 9,7 km/h (2 Bft) SO 225 0 min 0 W/m 11,3 C 19,3 C 9,7 km/h (2 Bft)
21/09/2012 12:20 19,5 C 60 % 1014,1 hPa 0,0 mm 7,6 km/h (2 Bft) S 180 0 min 0 W/m 11,5 C 19,5 C 11,5 km/h (2 Bft)
21/09/2012 12:30 19,8 C 60 % 1014,2 hPa 0,0 mm 7,9 km/h (2 Bft) S 180 0 min 0 W/m 11,8 C 19,8 C 12,6 km/h (3 Bft)
21/09/2012 12:40 19,9 C 60 % 1014,0 hPa 0,0 mm 8,6 km/h (2 Bft) S-SE 157 0 min 0 W/m 11,9 C 19,9 C 12,6 km/h (3 Bft)
21/09/2012 12:50 20,0 C 61 % 1014,3 hPa 0,0 mm 4,3 km/h (1 Bft) SO 225 0 min 0 W/m 12,2 C 20,0 C 9,7 km/h (2 Bft)
21/09/2012 13:00 19,7 C 64 % 1014,3 hPa 0,0 mm 9,0 km/h (2 Bft) SO 225 0 min 0 W/m 12,7 C 19,7 C 11,5 km/h (2 Bft)
21/09/2012 13:10 19,1 C 67 % 1014,3 hPa 0,0 mm 9,0 km/h (2 Bft) SO 225 0 min 0 W/m 12,8 C 19,1 C 9,0 km/h (2 Bft)
21/09/2012 13:20 18,3 C 71 % 1014,1 hPa 0,0 mm 7,9 km/h (2 Bft) SO 225 0 min 0 W/m 12,9 C 18,3 C 11,9 km/h (2 Bft)
21/09/2012 13:30 17,6 C 74 % 1014,1 hPa 0,0 mm 7,2 km/h (2 Bft) S-SO 202 0 min 0 W/m 12,9 C 17,6 C 11,5 km/h (2 Bft)
21/09/2012 13:40 17,2 C 75 % 1013,9 hPa 0,0 mm 7,2 km/h (2 Bft) N 360 0 min 0 W/m 12,7 C 17,2 C 7,2 km/h (2 Bft)
21/09/2012 13:50 17,1 C 77 % 1014,0 hPa 0,0 mm 0,0 km/h (0 Bft) E-NE 67 0 min 0 W/m 13,0 C 17,1 C 3,6 km/h (1 Bft)
21/09/2012 14:00 17,3 C 79 % 1013,9 hPa 0,0 mm 3,2 km/h (1 Bft) E-SE 112 0 min 0 W/m 13,6 C 17,3 C 6,5 km/h (2 Bft)
21/09/2012 14:10 17,6 C 81 % 1013,9 hPa 0,0 mm 2,2 km/h (1 Bft) S-SE 157 0 min 0 W/m 14,3 C 17,6 C 4,3 km/h (1 Bft)
21/09/2012 14:20 18,1 C 80 % 1013,7 hPa 0,0 mm 2,2 km/h (1 Bft) S-SE 157 0 min 0 W/m 14,6 C 18,1 C 4,7 km/h (1 Bft)
21/09/2012 14:30 18,6 C 80 % 1013,7 hPa 0,0 mm 0,0 km/h (0 Bft) S-SE 157 0 min 0 W/m 15,1 C 18,6 C 0,0 km/h (0 Bft)
21/09/2012 14:40 19,1 C 77 % 1013,7 hPa 0,0 mm 5,8 km/h (2 Bft) S 180 0 min 0 W/m 15,0 C 19,1 C 8,3 km/h (2 Bft)
21/09/2012 14:50 19,6 C 74 % 1013,6 hPa 0,0 mm 5,8 km/h (2 Bft) S 180 0 min 0 W/m 14,8 C 19,6 C 11,2 km/h (2 Bft)
21/09/2012 15:00 19,8 C 73 % 1013,4 hPa 0,0 mm 3,6 km/h (1 Bft) S-SE 157 0 min 0 W/m 14,8 C 19,8 C 3,6 km/h (1 Bft)
21/09/2012 15:10 20,0 C 72 % 1013,3 hPa 0,0 mm 2,5 km/h (1 Bft) E-SE 112 0 min 0 W/m 14,8 C 20,0 C 6,1 km/h (2 Bft)
21/09/2012 15:20 20,1 C 71 % 1013,1 hPa 0,0 mm 0,0 km/h (0 Bft) S-SE 157 0 min 0 W/m 14,7 C 20,1 C 4,0 km/h (1 Bft)
21/09/2012 15:30 20,2 C 73 % 1013,2 hPa 0,0 mm 0,4 km/h (0 Bft) NE 45 0 min 0 W/m 15,2 C 20,2 C 3,2 km/h (1 Bft)
21/09/2012 15:40 20,1 C 74 % 1013,2 hPa 0,0 mm 0,0 km/h (0 Bft) N-NE 22 0 min 0 W/m 15,3 C 20,1 C 0,0 km/h (0 Bft)
21/09/2012 15:50 20,2 C 74 % 1013,1 hPa 0,0 mm 0,4 km/h (0 Bft) N-NE 22 0 min 0 W/m 15,4 C 20,2 C 0,4 km/h (0 Bft)
21/09/2012 16:00 20,5 C 74 % 1013,1 hPa 0,0 mm 1,8 km/h (1 Bft) N-NE 22 0 min 0 W/m 15,7 C 20,5 C 3,2 km/h (1 Bft)
21/09/2012 16:10 20,9 C 72 % 1013,0 hPa 0,0 mm 0,0 km/h (0 Bft) N-NE 22 0 min 0 W/m 15,7 C 20,9 C 0,0 km/h (0 Bft)
21/09/2012 16:20 21,4 C 71 % 1012,8 hPa 0,0 mm 0,0 km/h (0 Bft) N-NE 22 0 min 0 W/m 15,9 C 21,4 C 0,0 km/h (0 Bft)
21/09/2012 16:30 21,6 C 70 % 1012,8 hPa 0,0 mm 0,4 km/h (0 Bft) N-NE 22 0 min 0 W/m 15,9 C 21,6 C 3,6 km/h (1 Bft)
21/09/2012 16:40 21,8 C 69 % 1012,7 hPa 0,0 mm 2,2 km/h (1 Bft) N-NE 22 0 min 0 W/m 15,9 C 21,8 C 2,2 km/h (1 Bft)
21/09/2012 16:50 22,1 C 68 % 1012,5 hPa 0,0 mm 0,4 km/h (0 Bft) N-NE 22 0 min 0 W/m 15,9 C 22,1 C 3,2 km/h (1 Bft)
21/09/2012 17:00 22,2 C 68 % 1012,4 hPa 0,0 mm 0,0 km/h (0 Bft) N-NE 22 0 min 0 W/m 16,0 C 22,2 C 0,0 km/h (0 Bft)
21/09/2012 17:10 22,6 C 68 % 1012,3 hPa 0,0 mm 1,8 km/h (1 Bft) NE 45 0 min 0 W/m 16,4 C 22,6 C 4,3 km/h (1 Bft)
21/09/2012 17:20 23,2 C 65 % 1012,3 hPa 0,0 mm 2,9 km/h (1 Bft) S-SO 202 0 min 0 W/m 16,2 C 23,2 C 4,3 km/h (1 Bft)
21/09/2012 17:30 23,8 C 63 % 1012,2 hPa 0,0 mm 7,6 km/h (2 Bft) S 180 0 min 0 W/m 16,3 C 23,8 C 7,6 km/h (2 Bft)
21/09/2012 17:40 23,7 C 61 % 1012,0 hPa 0,0 mm 5,4 km/h (2 Bft) S-SO 202 0 min 0 W/m 15,7 C 23,7 C 9,7 km/h (2 Bft)
21/09/2012 17:50 23,5 C 61 % 1012,0 hPa 0,0 mm 4,0 km/h (1 Bft) SO 225 0 min 0 W/m 15,5 C 23,5 C 4,0 km/h (1 Bft)
21/09/2012 18:00 23,7 C 61 % 1012,0 hPa 0,0 mm 7,6 km/h (2 Bft) SE 135 0 min 0 W/m 15,7 C 23,7 C 13,3 km/h (3 Bft)
21/09/2012 18:10 23,8 C 61 % 1011,8 hPa 0,0 mm 5,4 km/h (2 Bft) O-SO 247 0 min 0 W/m 15,8 C 23,8 C 9,4 km/h (2 Bft)
21/09/2012 18:20 23,8 C 61 % 1011,8 hPa 0,0 mm 4,3 km/h (1 Bft) O-SO 247 0 min 0 W/m 15,8 C 23,8 C 4,3 km/h (1 Bft)
21/09/2012 18:30 23,6 C 61 % 1012,0 hPa 0,0 mm 7,2 km/h (2 Bft) SO 225 0 min 0 W/m 15,6 C 23,6 C 7,2 km/h (2 Bft)
21/09/2012 18:40 23,4 C 62 % 1012,1 hPa 0,0 mm 6,5 km/h (2 Bft) S-SO 202 0 min 0 W/m 15,7 C 23,4 C 10,8 km/h (2 Bft)
21/09/2012 18:50 23,1 C 63 % 1012,3 hPa 0,0 mm 0,7 km/h (0 Bft) SO 225 0 min 0 W/m 15,7 C 23,1 C 4,3 km/h (1 Bft)
21/09/2012 19:00 22,8 C 64 % 1012,3 hPa 0,0 mm 0,0 km/h (0 Bft) SO 225 0 min 0 W/m 15,6 C 22,8 C 3,6 km/h (1 Bft)
21/09/2012 19:10 22,6 C 64 % 1012,4 hPa 0,0 mm 0,0 km/h (0 Bft) SO 225 0 min 0 W/m 15,4 C 22,6 C 0,0 km/h (0 Bft)
21/09/2012 19:20 22,4 C 65 % 1012,5 hPa 0,0 mm 0,0 km/h (0 Bft) SO 225 0 min 0 W/m 15,5 C 22,4 C 0,0 km/h (0 Bft)
21/09/2012 19:30 22,1 C 67 % 1012,5 hPa 0,0 mm 2,5 km/h (1 Bft) NE 45 0 min 0 W/m 15,7 C 22,1 C 3,6 km/h (1 Bft)
21/09/2012 19:40 21,4 C 69 % 1012,3 hPa 0,0 mm 4,7 km/h (1 Bft) N-NE 22 0 min 0 W/m 15,5 C 21,4 C 12,2 km/h (2 Bft)
21/09/2012 19:50 20,6 C 72 % 1012,4 hPa 0,0 mm 1,1 km/h (1 Bft) NE 45 0 min 0 W/m 15,4 C 20,6 C 3,6 km/h (1 Bft)
21/09/2012 20:00 20,1 C 73 % 1012,3 hPa 0,0 mm 0,7 km/h (0 Bft) N-NE 22 0 min 0 W/m 15,1 C 20,1 C 3,6 km/h (1 Bft)
21/09/2012 20:10 19,8 C 74 % 1012,4 hPa 0,0 mm 0,0 km/h (0 Bft) N-NE 22 0 min 0 W/m 15,0 C 19,8 C 0,0 km/h (0 Bft)
21/09/2012 20:20 19,4 C 75 % 1012,3 hPa 0,0 mm 0,0 km/h (0 Bft) N-NE 22 0 min 0 W/m 14,8 C 19,4 C 0,0 km/h (0 Bft)
21/09/2012 20:30 19,1 C 76 % 1012,3 hPa 0,0 mm 0,0 km/h (0 Bft) N-NE 22 0 min 0 W/m 14,8 C 19,1 C 3,6 km/h (1 Bft)
21/09/2012 20:40 18,8 C 77 % 1012,2 hPa 0,0 mm 0,0 km/h (0 Bft) E-NE 67 0 min 0 W/m 14,7 C 18,8 C 0,0 km/h (0 Bft)
21/09/2012 20:50 18,4 C 78 % 1012,4 hPa 0,0 mm 0,7 km/h (0 Bft) N-NE 22 0 min 0 W/m 14,5 C 18,4 C 3,6 km/h (1 Bft)
21/09/2012 21:00 18,2 C 79 % 1012,4 hPa 0,0 mm 0,7 km/h (0 Bft) N-NE 22 0 min 0 W/m 14,5 C 18,2 C 3,6 km/h (1 Bft)
21/09/2012 21:10 17,9 C 79 % 1012,6 hPa 0,0 mm 0,0 km/h (0 Bft) N-NE 22 0 min 0 W/m 14,2 C 17,9 C 0,0 km/h (0 Bft)
21/09/2012 21:20 17,6 C 80 % 1012,8 hPa 0,0 mm 0,0 km/h (0 Bft) N-NE 22 0 min 0 W/m 14,1 C 17,6 C 0,0 km/h (0 Bft)
21/09/2012 21:30 17,4 C 81 % 1012,7 hPa 0,0 mm 0,7 km/h (0 Bft) N-NE 22 0 min 0 W/m 14,1 C 17,4 C 4,0 km/h (1 Bft)
21/09/2012 21:40 17,3 C 82 % 1012,7 hPa 0,0 mm 0,7 km/h (0 Bft) N-NE 22 0 min 0 W/m 14,2 C 17,3 C 3,6 km/h (1 Bft)
21/09/2012 21:50 17,2 C 82 % 1012,6 hPa 0,0 mm 0,0 km/h (0 Bft) NE 45 0 min 0 W/m 14,1 C 17,2 C 0,0 km/h (0 Bft)
21/09/2012 22:00 17,1 C 82 % 1012,6 hPa 0,0 mm 0,0 km/h (0 Bft) E-NE 67 0 min 0 W/m 14,0 C 17,1 C 0,0 km/h (0 Bft)
21/09/2012 22:10 17,1 C 82 % 1012,7 hPa 0,0 mm 0,0 km/h (0 Bft) E-NE 67 0 min 0 W/m 14,0 C 17,1 C 0,0 km/h (0 Bft)
21/09/2012 22:20 17,1 C 82 % 1012,7 hPa 0,0 mm 0,4 km/h (0 Bft) NE 45 0 min 0 W/m 14,0 C 17,1 C 0,4 km/h (0 Bft)
21/09/2012 22:30 17,1 C 83 % 1012,7 hPa 0,0 mm 0,0 km/h (0 Bft) NE 45 0 min 0 W/m 14,2 C 17,1 C 0,0 km/h (0 Bft)
21/09/2012 22:40 17,1 C 83 % 1012,9 hPa 0,0 mm 0,0 km/h (0 Bft) NE 45 0 min 0 W/m 14,2 C 17,1 C 0,0 km/h (0 Bft)
21/09/2012 22:50 16,9 C 83 % 1012,9 hPa 0,0 mm 4,3 km/h (1 Bft) N-NE 22 0 min 0 W/m 14,0 C 16,9 C 7,6 km/h (2 Bft)
21/09/2012 23:00 16,8 C 84 % 1013,0 hPa 0,0 mm 0,4 km/h (0 Bft) N-NE 22 0 min 0 W/m 14,1 C 16,8 C 0,4 km/h (0 Bft)
_ Min-Heure 02:50 00:00 18:20 - 22:40 - - - - 00:00 03:20 22:40
Minimum _ 9,1 C 59 % 1011,8 hPa - 0,0 km/h (0 Bft) - - - - 3,1 C 8,9 C 0,0 km/h (0 Bft)
_ Max-Heure 18:20 23:00 01:00 23:00 12:10 - - 23:00 23:00 17:10 18:20 12:00
Maximum _ 23,8 C 84 % 1015,7 hPa 0,0 mm 9,7 km/h
SO (2 Bft)
- - 0 min 0 W/m 16,4 C 23,8 C 15,5 km/h
S (3 Bft)
Moyenne _ 16,1 C 70 % 1013,7 hPa #0,0 mm 2,6 km/h (1 Bft) E-SE - #0 min. 0 W/m 10,6 C 16,1 C 4,6 km/h (1 Bft)
Saint Bonnet de Bellac- Haute Vienne - France